TimeMST,TemperatureF,Dew PointF,Humidity,Sea Level PressureIn,VisibilityMPH,Wind Direction,Wind SpeedMPH,Gust SpeedMPH,PrecipitationIn,Events,Conditions,WindDirDegrees,DateUTC
12:15 AM,17.6,14.0,86,30.35,10.0,Calm,Calm,-,N/A,,Clear,0,2013-11-30 07:15:00
12:35 AM,17.6,14.0,86,30.34,10.0,Calm,Calm,-,N/A,,Clear,0,2013-11-30 07:35:00
12:55 AM,17.6,14.0,86,30.35,10.0,Calm,Calm,-,N/A,,Clear,0,2013-11-30 07:55:00
1:15 AM,17.6,14.0,86,30.35,10.0,Calm,Calm,-,N/A,,Clear,0,2013-11-30 08:15:00
1:35 AM,17.6,14.0,86,30.36,10.0,Calm,Calm,-,N/A,,Clear,0,2013-11-30 08:35:00
1:54 AM,15.8,12.2,86,30.36,10.0,Calm,Calm,-,N/A,,Clear,0,2013-11-30 08:54:00
2:15 AM,14.0,12.2,93,30.36,10.0,Calm,Calm,-,N/A,,Clear,0,2013-11-30 09:15:00
2:35 AM,14.0,10.4,86,30.36,10.0,Calm,Calm,-,N/A,,Clear,0,2013-11-30 09:35:00
2:55 AM,14.0,12.2,93,30.36,10.0,Calm,Calm,-,N/A,,Clear,0,2013-11-30 09:55:00
3:15 AM,14.0,12.2,93,30.36,10.0,Calm,Calm,-,N/A,,Clear,0,2013-11-30 10:15:00
3:35 AM,14.0,10.4,86,30.36,10.0,Calm,Calm,-,N/A,,Clear,0,2013-11-30 10:35:00
3:54 AM,14.0,10.4,86,30.36,10.0,Calm,Calm,-,N/A,,Clear,0,2013-11-30 10:54:00
4:15 AM,14.0,10.4,86,30.37,7.0,Calm,Calm,-,N/A,,Clear,0,2013-11-30 11:15:00
4:35 AM,12.2,10.4,92,30.37,10.0,Calm,Calm,-,N/A,,Clear,0,2013-11-30 11:35:00
4:55 AM,12.2,10.4,92,30.37,10.0,Calm,Calm,-,N/A,,Clear,0,2013-11-30 11:55:00
5:15 AM,12.2,8.6,85,30.37,10.0,Calm,Calm,-,N/A,,Clear,0,2013-11-30 12:15:00
5:35 AM,12.2,8.6,85,30.37,10.0,Calm,Calm,-,N/A,,Clear,0,2013-11-30 12:35:00
5:55 AM,12.2,8.6,85,30.37,10.0,Calm,Calm,-,N/A,,Clear,0,2013-11-30 12:55:00
6:15 AM,12.2,8.6,85,30.38,10.0,Calm,Calm,-,N/A,,Clear,0,2013-11-30 13:15:00
6:35 AM,10.4,8.6,92,30.39,10.0,Calm,Calm,-,N/A,,Clear,0,2013-11-30 13:35:00
6:55 AM,10.4,8.6,92,30.39,10.0,Calm,Calm,-,N/A,,Clear,0,2013-11-30 13:55:00
7:15 AM,10.4,6.8,85,30.40,10.0,Calm,Calm,-,N/A,,Clear,0,2013-11-30 14:15:00
7:35 AM,10.4,6.8,85,30.40,10.0,Calm,Calm,-,N/A,,Clear,0,2013-11-30 14:35:00
7:54 AM,12.2,8.6,85,30.40,10.0,Calm,Calm,-,N/A,,Clear,0,2013-11-30 14:54:00
8:15 AM,14.0,10.4,86,30.40,10.0,Calm,Calm,-,N/A,,Clear,0,2013-11-30 15:15:00
8:35 AM,17.6,12.2,79,30.40,10.0,WSW,3.5,-,N/A,,Clear,250,2013-11-30 15:35:00
8:55 AM,17.6,14.0,86,30.41,10.0,Calm,Calm,-,N/A,,Clear,0,2013-11-30 15:55:00
9:14 AM,19.4,15.8,86,30.41,10.0,Calm,Calm,-,N/A,,Clear,0,2013-11-30 16:14:00
9:34 AM,21.2,15.8,80,30.40,10.0,Calm,Calm,-,N/A,,Clear,0,2013-11-30 16:34:00
9:54 AM,23.0,17.6,80,30.40,10.0,Calm,Calm,-,N/A,,Clear,0,2013-11-30 16:54:00
10:14 AM,24.8,17.6,74,30.40,10.0,Calm,Calm,-,N/A,,Clear,0,2013-11-30 17:14:00
10:35 AM,28.4,17.6,64,30.39,10.0,Calm,Calm,-,N/A,,Clear,0,2013-11-30 17:35:00
10:54 AM,30.2,19.4,64,30.38,10.0,Calm,Calm,-,N/A,,Clear,0,2013-11-30 17:54:00
11:14 AM,30.2,17.6,60,30.37,10.0,Calm,Calm,-,N/A,,Clear,0,2013-11-30 18:14:00
11:35 AM,32.0,17.6,55,30.36,10.0,Calm,Calm,-,N/A,,Clear,0,2013-11-30 18:35:00
11:55 AM,32.0,19.4,60,30.34,10.0,Calm,Calm,-,N/A,,Clear,0,2013-11-30 18:55:00
12:15 PM,33.8,19.4,56,30.33,10.0,Calm,Calm,-,N/A,,Clear,0,2013-11-30 19:15:00
12:35 PM,33.8,19.4,56,30.32,10.0,Calm,Calm,-,N/A,,Clear,0,2013-11-30 19:35:00
12:55 PM,35.6,19.4,52,30.31,10.0,Calm,Calm,-,N/A,,Clear,0,2013-11-30 19:55:00
1:15 PM,37.4,19.4,48,30.29,10.0,Calm,Calm,-,N/A,,Clear,0,2013-11-30 20:15:00
1:35 PM,37.4,19.4,48,30.28,10.0,Calm,Calm,-,N/A,,Clear,0,2013-11-30 20:35:00
1:55 PM,41.0,19.4,42,30.27,10.0,Calm,Calm,-,N/A,,Clear,0,2013-11-30 20:55:00
2:15 PM,42.8,17.6,36,30.26,10.0,WSW,8.1,-,N/A,,Clear,250,2013-11-30 21:15:00
2:35 PM,42.8,17.6,36,30.25,10.0,WSW,12.7,-,N/A,,Clear,250,2013-11-30 21:35:00
2:55 PM,42.8,17.6,36,30.25,10.0,WSW,10.4,-,N/A,,Clear,250,2013-11-30 21:55:00
3:14 PM,42.8,17.6,36,30.25,10.0,WSW,10.4,16.1,N/A,,Clear,240,2013-11-30 22:14:00
3:35 PM,42.8,17.6,36,30.25,10.0,SW,8.1,-,N/A,,Clear,230,2013-11-30 22:35:00
3:55 PM,41.0,17.6,39,30.25,10.0,SW,5.8,-,N/A,,Clear,230,2013-11-30 22:55:00
4:15 PM,39.2,17.6,42,30.26,10.0,SW,6.9,-,N/A,,Clear,230,2013-11-30 23:15:00
4:35 PM,35.6,19.4,52,30.26,10.0,WSW,4.6,-,N/A,,Clear,240,2013-11-30 23:35:00
4:55 PM,35.6,19.4,52,30.26,10.0,Calm,Calm,-,N/A,,Clear,0,2013-11-30 23:55:00
5:14 PM,33.8,19.4,56,30.26,10.0,Calm,Calm,-,N/A,,Clear,0,2013-12-01 00:14:00
5:35 PM,32.0,21.2,64,30.26,10.0,Calm,Calm,-,N/A,,Clear,0,2013-12-01 00:35:00
5:54 PM,32.0,19.4,60,30.27,10.0,North,3.5,-,N/A,,Clear,350,2013-12-01 00:54:00
6:15 PM,30.2,21.2,69,30.27,10.0,South,3.5,-,N/A,,Clear,180,2013-12-01 01:15:00
6:35 PM,30.2,21.2,69,30.28,10.0,Calm,Calm,-,N/A,,Clear,0,2013-12-01 01:35:00
6:55 PM,28.4,19.4,69,30.28,10.0,SE,4.6,-,N/A,,Clear,140,2013-12-01 01:55:00
7:15 PM,26.6,19.4,74,30.29,10.0,Calm,Calm,-,N/A,,Clear,0,2013-12-01 02:15:00
7:35 PM,26.6,19.4,74,30.29,10.0,Calm,Calm,-,N/A,,Clear,0,2013-12-01 02:35:00
7:55 PM,26.6,19.4,74,30.29,10.0,ESE,5.8,-,N/A,,Clear,120,2013-12-01 02:55:00
8:14 PM,23.0,17.6,80,30.30,10.0,NE,3.5,-,N/A,,Clear,50,2013-12-01 03:14:00
8:35 PM,24.8,19.4,80,30.30,10.0,ENE,3.5,-,N/A,,Clear,60,2013-12-01 03:35:00
8:55 PM,21.2,17.6,86,30.30,10.0,Calm,Calm,-,N/A,,Clear,0,2013-12-01 03:55:00
9:15 PM,21.2,17.6,86,30.31,10.0,Calm,Calm,-,N/A,,Clear,0,2013-12-01 04:15:00
9:35 PM,21.2,15.8,80,30.32,10.0,Calm,Calm,-,N/A,,Clear,0,2013-12-01 04:35:00
9:54 PM,21.2,15.8,80,30.32,10.0,Calm,Calm,-,N/A,,Clear,0,2013-12-01 04:54:00
10:15 PM,19.4,17.6,93,30.33,10.0,Calm,Calm,-,N/A,,Clear,0,2013-12-01 05:15:00
10:35 PM,19.4,17.6,93,30.33,10.0,Calm,Calm,-,N/A,,Clear,0,2013-12-01 05:35:00
10:55 PM,19.4,15.8,86,30.32,10.0,Calm,Calm,-,N/A,,Clear,0,2013-12-01 05:55:00
11:14 PM,17.6,14.0,86,30.32,10.0,Calm,Calm,-,N/A,,Clear,0,2013-12-01 06:14:00
11:34 PM,17.6,14.0,86,30.32,10.0,Calm,Calm,-,N/A,,Clear,0,2013-12-01 06:34:00
11:55 PM,17.6,14.0,86,30.32,7.0,Calm,Calm,-,N/A,,Clear,0,2013-12-01 06:55:00